GW0175 Weather Reports


Display with metric or nautical units.
time (UTC)temp
F
wind
direction
speed
MPH
gust
MPH
rain 1hr
in
rain 24hr
in
rain mn
in
humidity
%
barometer
mb
20260503022350 61 150 2.0 3.0 0.00 0.00 0.00 58 1018.2
20260503021846 61 135 0.0 2.0 0.00 0.00 0.00 58 1018.5
20260503021343 61 163 2.0 4.0 0.00 0.00 0.00 57 1018.4
20260503020840 61 172 0.0 3.0 0.00 0.00 0.00 58 1018.4
20260503020338 61 160 0.0 2.0 0.00 0.00 0.00 59 1018.3
20260503015834 61 139 0.0 2.0 0.00 0.00 0.00 59 1018.2
20260503015331 61 168 0.0 1.0 0.00 0.00 0.00 58 1018.5
20260503014827 61 180 0.0 3.0 0.00 0.00 0.00 57 1018.2
20260503014325 62 166 2.0 3.0 0.00 0.00 0.00 56 1018.2
20260503013822 62 161 2.0 3.0 0.00 0.00 0.00 56 1018.0
20260503013319 62 150 2.0 2.0 0.00 0.00 0.00 56 1017.9
20260503012816 62 145 0.0 2.0 0.00 0.00 0.00 57 1017.9
20260503012314 62 140 2.0 2.0 0.00 0.00 0.00 56 1017.9
20260503011810 62 174 1.0 2.0 0.00 0.00 0.00 56 1017.8
20260503011307 63 160 1.0 2.0 0.00 0.00 0.00 54 1018.0
20260503010804 63 171 3.0 4.0 0.00 0.00 0.00 53 1017.7
20260503010301 64 111 0.0 3.0 0.00 0.00 0.00 52 1018.0
20260503005758 64 144 3.0 5.0 0.00 0.00 0.00 52 1017.9
20260503005255 64 106 1.0 3.0 0.00 0.00 0.00 51 1018.0
20260503004751 65 150 2.0 3.0 0.00 0.00 0.00 50 1017.9
20260503004249 65 144 2.0 5.0 0.00 0.00 0.00 50 1017.8
20260503003746 65 139 2.0 4.0 0.00 0.00 0.00 48 1017.6
20260503003243 66 163 6.0 7.0 0.00 0.00 0.00 46 1017.9
20260503002740 66 153 5.0 7.0 0.00 0.00 0.00 47 1017.7
20260503002237 66 161 7.0 9.0 0.00 0.00 0.00 47 1017.6
20260503001733 66 116 0.0 7.0 0.00 0.00 0.00 47 1017.7
20260503001229 66 188 3.0 6.0 0.00 0.00 0.00 47 1017.7
20260503000728 66 176 2.0 6.0 0.00 0.00 0.00 47 1017.7
20260503000226 66 163 3.0 6.0 0.00 0.00 0.00 49 1017.8
20260502235721 66 190 5.0 7.0 0.00 0.00 0.00 47 1017.7
20260502235220 66 215 3.0 9.0 0.00 0.00 0.00 46 1017.7
20260502234715 67 180 5.0 9.0 0.00 0.00 0.00 46 1017.8
20260502234213 67 128 2.0 3.0 0.00 0.00 0.00 45 1017.8
20260502233708 67 180 4.0 9.0 0.00 0.00 0.00 46 1017.7
20260502233205 67 160 3.0 5.0 0.00 0.00 0.00 46 1017.7
20260502232701 66 159 8.0 13.0 0.00 0.00 0.00 46 1017.9
20260502232159 68 157 9.0 13.0 0.00 0.00 0.00 45 1017.7
20260502231655 68 99 0.0 7.0 0.00 0.00 0.00 46 1017.8
20260502231153 68 195 2.0 4.0 0.00 0.00 0.00 45 1017.8
20260502230652 68 147 3.0 8.0 0.00 0.00 0.00 45 1017.8
20260502230150 68 57 0.0 9.0 0.00 0.00 0.00 45 1017.6
20260502225645 68 158 5.0 7.0 0.00 0.00 0.00 45 1017.7
20260502225143 67 180 4.0 8.0 0.00 0.00 0.00 45 1017.6
20260502224638 68 143 3.0 8.0 0.00 0.00 0.00 45 1017.8
20260502224135 67 163 4.0 6.0 0.00 0.00 0.00 45 1017.6
20260502223633 67 169 7.0 9.0 0.00 0.00 0.00 45 1017.8
20260502223131 66 168 5.0 11.0 0.00 0.00 0.00 45 1017.7
20260502222628 67 173 7.0 8.0 0.00 0.00 0.00 45 1018.0
20260502222125 67 210 2.0 8.0 0.00 0.00 0.00 45 1017.9
20260502221620 67 150 2.0 7.0 0.00 0.00 0.00 45 1017.9
20260502221118 68 257 1.0 4.0 0.00 0.00 0.00 46 1017.9
20260502220614 66 229 8.0 8.0 0.00 0.00 0.00 46 1018.0
20260502220110 68 75 3.0 6.0 0.00 0.00 0.00 43 1018.1
20260502215608 66 173 5.0 7.0 0.00 0.00 0.00 44 1018.2
20260502215104 67 183 5.0 6.0 0.00 0.00 0.00 45 1018.3
20260502214601 66 230 4.0 7.0 0.00 0.00 0.00 43 1018.5
20260502214059 66 114 5.0 11.0 0.00 0.00 0.00 45 1018.5
20260502213555 67 109 3.0 6.0 0.00 0.00 0.00 44 1018.5
20260502213053 64 277 5.0 7.0 0.00 0.00 0.00 46 1018.8
20260502212552 66 196 6.0 6.0 0.00 0.00 0.00 45 1019.0
20260502212049 64 97 1.0 7.0 0.00 0.00 0.00 47 1019.1
20260502211544 66 151 6.0 10.0 0.00 0.00 0.00 47 1019.2
20260502211042 65 172 2.0 9.0 0.00 0.00 0.00 47 1019.4
20260502210539 64 236 5.0 7.0 0.00 0.00 0.00 48 1019.4
20260502210036 65 160 5.0 9.0 0.00 0.00 0.00 49 1019.4
20260502205532 65 165 2.0 8.0 0.00 0.00 0.00 47 1019.5
20260502205030 65 157 0.0 4.0 0.00 0.00 0.00 48 1019.5
20260502204526 64 150 4.0 5.0 0.00 0.00 0.00 47 1019.7
20260502204025 63 160 3.0 7.0 0.00 0.00 0.00 47 1020.0
20260502203521 64 163 6.0 7.0 0.00 0.00 0.00 49 1020.0
20260502203018 65 166 8.0 10.0 0.00 0.00 0.00 47 1020.0
20260502202514 65 180 0.0 5.0 0.00 0.00 0.00 47 1019.8
20260502202013 64 199 4.0 7.0 0.00 0.00 0.00 48 1019.7
20260502201508 64 149 6.0 9.0 0.00 0.00 0.00 48 1020.1
20260502201004 64 199 2.0 4.0 0.00 0.00 0.00 48 1020.1
20260502200500 65 190 3.0 12.0 0.00 0.00 0.00 46 1020.2
20260502195959 65 192 5.0 13.0 0.00 0.00 0.00 46 1020.0
20260502195456 64 206 4.0 8.0 0.00 0.00 0.00 48 1020.2
20260502194951 64 229 2.0 6.0 0.00 0.00 0.00 49 1020.2
20260502194449 65 237 2.0 4.0 0.00 0.00 0.00 48 1020.2
20260502193944 66 209 1.0 5.0 0.00 0.00 0.00 47 1020.3
20260502193442 64 167 7.0 9.0 0.00 0.00 0.00 48 1020.3
20260502192938 64 186 4.0 9.0 0.00 0.00 0.00 46 1020.3
20260502192435 64 249 4.0 4.0 0.00 0.00 0.00 46 1020.4
20260502191932 64 197 4.0 7.0 0.00 0.00 0.00 47 1020.4
20260502191429 64 40 0.0 5.0 0.00 0.00 0.00 50 1020.8
20260502190927 64 238 5.0 8.0 0.00 0.00 0.00 50 1020.6
20260502190424 64 174 7.0 8.0 0.00 0.00 0.00 49 1020.6
20260502185920 64 173 0.0 5.0 0.00 0.00 0.00 50 1020.4
20260502185415 64 261 3.0 8.0 0.00 0.00 0.00 48 1020.6
20260502184913 63 227 3.0 6.0 0.00 0.00 0.00 48 1020.9
20260502184408 63 199 2.0 12.0 0.00 0.00 0.00 49 1020.9
20260502183905 63 252 4.0 7.0 0.00 0.00 0.00 48 1021.2
20260502183401 63 166 4.0 4.0 0.00 0.00 0.00 49 1021.0
20260502182856 62 230 5.0 7.0 0.00 0.00 0.00 48 1021.0
20260502182352 62 233 4.0 7.0 0.00 0.00 0.00 51 1021.4
20260502181848 62 199 0.0 12.0 0.00 0.00 0.00 48 1021.3
20260502181348 62 208 5.0 8.0 0.00 0.00 0.00 50 1021.4
20260502180845 62 319 2.0 7.0 0.00 0.00 0.00 51 1021.3
20260502180342 62 239 4.0 5.0 0.00 0.00 0.00 49 1021.5
20260502170300 61 201 2.0 6.0 0.00 0.00 0.00 44 1021.8
20260502164243 61 279 0.0 3.0 0.00 0.00 0.00 54 1022.0
20260502163738 60 270 0.0 3.0 0.00 0.00 0.00 59 1022.1
20260502163235 60 194 3.0 3.0 0.00 0.00 0.00 59 1021.8
20260502162732 59 297 3.0 5.0 0.00 0.00 0.00 60 1021.8
20260502162229 58 66 3.0 4.0 0.00 0.00 0.00 63 1022.0
20260502161726 60 345 3.0 5.0 0.00 0.00 0.00 65 1022.0
20260502161222 59 4 0.0 3.0 0.00 0.00 0.00 64 1021.8
20260502160721 60 90 1.0 4.0 0.00 0.00 0.00 63 1022.0
20260502160219 59 270 1.0 3.0 0.00 0.00 0.00 65 1021.9
20260502152143 56 62 3.0 4.0 0.00 0.00 0.00 73 1022.0
20260502151641 56 37 4.0 4.0 0.00 0.00 0.00 72 1021.8
20260502151138 56 144 0.0 2.0 0.00 0.00 0.00 71 1021.8
20260502150635 55 109 0.0 5.0 0.00 0.00 0.00 75 1021.9
20260502150131 55 64 3.0 3.0 0.00 0.00 0.00 75 1022.0
20260502130520 50 19 3.0 3.0 0.00 0.00 0.00 92 1021.3
20260502123503 50 36 4.0 4.0 0.00 0.00 0.00 92 1020.7
20260502123000 50 31 3.0 5.0 0.00 0.00 0.00 92 1020.8
20260502122456 50 23 1.0 7.0 0.00 0.00 0.00 92 1020.6
20260502121954 49 32 3.0 5.0 0.00 0.00 0.00 92 1020.5
20260502121451 49 17 2.0 5.0 0.00 0.00 0.00 92 1020.4
20260502120948 50 39 2.0 5.0 0.00 0.00 0.00 92 1020.5
20260502120444 50 4 4.0 6.0 0.00 0.00 0.00 92 1020.4
20260502115439 50 0 4.0 4.0 0.00 0.00 0.00 92 1020.4
20260502114935 50 6 4.0 4.0 0.00 0.00 0.00 92 1020.2
20260502114432 50 0 2.0 5.0 0.00 0.00 0.00 92 1020.3
20260502113929 49 351 2.0 4.0 0.00 0.00 0.00 92 1020.4
20260502113426 49 337 1.0 5.0 0.00 0.00 0.00 92 1020.3
20260502112925 50 330 2.0 4.0 0.00 0.00 0.00 91 1020.1
20260502112422 49 32 1.0 2.0 0.00 0.00 0.00 91 1020.2
20260502111920 49 0 3.0 3.0 0.00 0.00 0.00 92 1020.3
20260502111416 49 350 2.0 3.0 0.00 0.00 0.00 91 1020.3
20260502110914 50 0 0.0 3.0 0.00 0.00 0.00 92 1020.0
20260502110412 49 342 2.0 3.0 0.00 0.00 0.00 92 1020.1
20260502105909 49 90 0.0 0.0 0.00 0.00 0.00 91 1020.2
20260502105406 49 0 0.0 2.0 0.00 0.00 0.00 91 1020.1
20260502104904 49 72 0.0 0.0 0.00 0.00 0.00 92 1020.0
20260502104401 49 345 0.0 2.0 0.00 0.00 0.00 91 1019.8
20260502103858 49 345 2.0 3.0 0.00 0.00 0.00 92 1019.8
20260502103355 49 346 2.0 4.0 0.00 0.00 0.00 92 1019.7
20260502102852 49 339 3.0 5.0 0.00 0.00 0.00 92 1019.8
20260502102349 49 353 2.0 5.0 0.00 0.00 0.00 92 1020.0
20260502101846 49 0 2.0 3.0 0.00 0.00 0.00 92 1019.8
20260502101345 49 8 0.0 2.0 0.00 0.00 0.00 92 1020.0
20260502100843 49 29 1.0 3.0 0.00 0.00 0.00 92 1019.8
20260502100342 49 20 3.0 4.0 0.00 0.00 0.00 92 1020.1
20260502091315 49 270 0.0 0.0 0.00 0.00 0.00 92 1020.3
20260502090813 49 270 0.0 2.0 0.00 0.00 0.00 92 1020.2
20260502090309 50 90 0.0 0.0 0.00 0.00 0.00 92 1020.1
20260502071205 49 81 0.0 0.0 0.00 0.00 0.00 90 1020.5
20260502070703 49 74 0.0 0.0 0.00 0.00 0.00 90 1020.3
20260502070200 49 106 0.0 0.0 0.00 0.00 0.00 90 1020.4
20260502065659 50 111 0.0 1.0 0.00 0.00 0.00 90 1020.6
20260502065156 49 14 0.0 0.0 0.00 0.00 0.00 90 1020.6
20260502064655 50 354 0.0 0.0 0.00 0.00 0.00 90 1020.7
20260502064151 50 340 0.0 1.0 0.00 0.00 0.00 90 1020.5
20260502063649 50 8 0.0 0.0 0.00 0.00 0.00 89 1020.4
20260502063147 50 8 0.0 0.0 0.00 0.00 0.00 89 1020.5
20260502062643 50 8 0.0 0.0 0.00 0.00 0.00 89 1020.4
20260502062141 49 82 0.0 1.0 0.00 0.00 0.00 89 1020.5
20260502061639 50 12 0.0 0.0 0.00 0.00 0.00 89 1020.4
20260502061137 50 12 0.0 0.0 0.00 0.00 0.00 89 1020.7
20260502060636 50 12 0.0 0.0 0.00 0.00 0.00 89 1020.7
20260502060133 50 12 0.0 2.0 0.00 0.00 0.00 89 1020.8
20260502055631 50 5 0.0 0.0 0.00 1.42 1.42 89 1020.5
20260502055129 50 5 0.0 1.0 0.00 1.42 1.42 89 1020.4
20260502054628 50 19 2.0 2.0 0.00 1.42 1.42 89 1020.3
20260502054125 50 29 2.0 2.0 0.00 1.42 1.42 89 1020.4
20260502053622 50 35 1.0 2.0 0.00 1.42 1.42 89 1020.1
20260502053119 50 81 0.0 2.0 0.00 1.42 1.42 89 1020.1
20260502052617 50 15 2.0 3.0 0.00 1.42 1.42 88 1020.2
20260502052115 50 6 0.0 2.0 0.00 1.42 1.42 88 1020.3
20260502051613 51 5 1.0 2.0 0.00 1.42 1.42 88 1020.2
20260502051111 51 0 1.0 2.0 0.00 1.42 1.42 88 1020.1
20260502050607 51 331 0.0 1.0 0.00 1.42 1.42 88 1020.1
20260502050104 51 7 2.0 2.0 0.00 1.42 1.42 87 1020.2
20260502045600 51 356 2.0 3.0 0.00 1.42 1.42 86 1020.1
20260502045058 51 14 0.0 1.0 0.00 1.42 1.42 86 1020.2
20260502044554 51 0 2.0 3.0 0.00 1.42 1.42 86 1020.1
20260502044051 51 353 1.0 2.0 0.00 1.42 1.42 85 1020.0
20260502043548 51 15 0.0 0.0 0.00 1.42 1.42 85 1019.8
20260502043044 51 15 0.0 0.0 0.00 1.42 1.42 85 1020.0
20260502042539 51 0 0.0 2.0 0.00 1.42 1.42 85 1020.0
20260502042037 51 8 0.0 1.0 0.00 1.42 1.42 85 1019.7
20260502041535 51 14 0.0 1.0 0.00 1.42 1.42 84 1019.6
20260502041031 51 352 0.0 0.0 0.00 1.42 1.42 84 1019.5
20260502040528 51 352 0.0 0.0 0.00 1.42 1.42 84 1019.5
20260502040025 51 14 0.0 2.0 0.00 1.42 1.42 84 1019.6
20260502035521 51 54 0.0 2.0 0.00 1.42 1.42 84 1019.5
20260502035019 51 82 0.0 0.0 0.00 1.42 1.42 84 1019.4
20260502034516 51 99 0.0 0.0 0.00 1.42 1.42 84 1019.5
20260502034015 51 99 0.0 3.0 0.00 1.42 1.42 84 1019.6
20260502033513 51 74 0.0 1.0 0.00 1.42 1.42 84 1019.5
20260502033010 51 65 2.0 2.0 0.00 1.42 1.42 84 1019.4
20260502032505 51 37 3.0 3.0 0.00 1.42 1.42 84 1019.3
20260502032003 51 74 1.0 4.0 0.00 1.42 1.42 85 1019.2
20260502031500 51 111 0.0 3.0 0.00 1.42 1.42 85 1019.0
20260502030958 51 96 3.0 3.0 0.00 1.42 1.42 85 1019.2
20260502030456 52 75 1.0 2.0 0.00 1.42 1.42 85 1019.3
20260502025954 51 75 2.0 3.0 0.00 1.42 1.42 85 1019.2
20260502025451 51 63 2.0 2.0 0.00 1.42 1.42 85 1019.1
20260502024949 52 98 1.0 3.0 0.00 1.42 1.42 85 1019.0
20260502024447 52 95 2.0 2.0 0.00 1.42 1.42 85 1018.9
20260502023945 52 82 0.0 1.0 0.00 1.42 1.42 85 1019.0
20260502023442 52 90 0.0 2.0 0.00 1.42 1.42 85 1018.6
20260502022939 51 71 3.0 4.0 0.00 1.42 1.42 85 1018.5